Home > Weather > Forchheim > Past weeks

Flag for Germany Past Weather in Forchheim, Bavaria, Germany — Yesterday and Last 2 Weeks

Now
73 °F

Scattered clouds.


Feels Like: 75 °F
Forecast: 56 / 71 °F
Wind: 9 mph from West

Location: Nuernberg

Current Time: Jun 25, 2016 at 10:58:40 AM

Latest Report: Jun 25, 2016 at 10:20 AM


Visibility: N/A

Pressure: 29.92 "Hg

Humidity: 74%

Dew Point: 64 °F

Location of ForchheimLocation

Past Weather in Forchheim — Graph

°F

Forchheim Temperature Yesterday

Maximum temperature yesterday: 91 °F (at 3:20 PM)
Minimum temperature yesterday: 63 °F (at 5:20 AM)
Average temperature yesterday: 79 °F

High & Low Weather Summary for the Past Weeks

 TemperatureHumidityPressure
High91 °F (Jun 24, 3:20 PM)100% (Jun 12, 4:50 AM)30.27 "Hg (Jun 12, 4:50 AM)
Low46 °F (Jun 20, 5:20 AM)28% (Jun 24, 4:50 PM)29.53 "Hg (Jun 14, 4:20 PM)
Average63 °F75%29.92 "Hg
* Reported Jun 10 9:20 AM — Jun 25 9:20 AM, Forchheim, Weather by CustomWeather, © 2016

Note: Actual official high and low records may vary slightly from our data, if they occured in-between our weather recording intervals... More about our weather records

Advertising

Forchheim Weather History for the Previous 24 Hours

Scroll right to see more
 ConditionsComfort  
Time TempWeatherWind HumidityBarometerVisibility
9:20 AM
Sat, Jun 25
73 °FScattered clouds.10 mph74%29.95 "HgN/A
8:50 AM72 °FBroken clouds.10 mph78%29.95 "HgN/A
8:20 AM70 °FPassing clouds.7 mph78%29.92 "HgN/A
7:50 AM70 °FSunny.8 mph78%29.92 "Hg10 mi
7:20 AM70 °FSunny.8 mph78%29.92 "Hg10 mi
6:50 AM70 °FPassing clouds.8 mph78%29.92 "HgN/A
6:20 AM68 °FSunny.8 mph78%29.92 "Hg10 mi
5:50 AM68 °FPassing clouds.1 mph78%29.92 "HgN/A
5:20 AM68 °FPassing clouds.1 mph78%29.92 "HgN/A
4:50 AM70 °FClear.2 mph69%29.92 "Hg10 mi
4:20 AM68 °FClear.1 mph73%29.92 "Hg10 mi
3:50 AM70 °FPassing clouds.6 mph69%29.95 "HgN/A
3:20 AM70 °FClear.9 mph69%29.95 "Hg10 mi
2:50 AM72 °FClear.14 mph69%29.98 "Hg10 mi
2:20 AM73 °FPassing clouds.13 mph74%29.98 "HgN/A
1:50 AM73 °FClear.8 mph78%29.98 "Hg10 mi
1:20 AM72 °FClear.2 mph88%29.95 "Hg10 mi
12:50 AM72 °FPassing clouds.3 mph83%29.95 "HgN/A
12:20 AM73 °FClear.1 mph78%29.98 "Hg10 mi
11:50 PM
Fri, Jun 24
75 °FClear.2 mph74%29.98 "Hg10 mi
11:20 PM77 °FClear.2 mph69%29.98 "Hg10 mi
10:50 PM77 °FClear.1 mph69%29.98 "Hg10 mi
10:20 PM79 °FPassing clouds.3 mph65%29.98 "HgN/A
9:50 PM79 °FSunny.2 mph61%29.95 "Hg10 mi
9:20 PM82 °FSunny.1 mph55%29.95 "Hg10 mi
8:50 PM84 °FSunny.2 mph48%29.95 "Hg10 mi
8:20 PM86 °FSunny.1 mph43%29.98 "Hg10 mi
7:50 PM90 °FPassing clouds.3 mph33%29.95 "HgN/A
7:20 PM90 °FSunny.2 mph33%29.95 "Hg10 mi
6:50 PM91 °FPassing clouds.5 mph28%29.98 "HgN/A
6:20 PM91 °FPassing clouds.8 mph30%29.98 "HgN/A
5:50 PM91 °FPassing clouds.6 mph32%29.98 "HgN/A
5:20 PM91 °FPassing clouds.6 mph30%29.98 "HgN/A
4:50 PM91 °FSunny.1 mph28%29.98 "Hg10 mi
4:20 PM91 °FPassing clouds.5 mph30%29.98 "HgN/A
3:50 PM91 °FSunny.5 mph32%30.01 "Hg10 mi
3:20 PM91 °FSunny.3 mph32%30.01 "Hg10 mi
2:50 PM90 °FPassing clouds.7 mph31%30.01 "HgN/A
2:20 PM90 °FPassing clouds.6 mph33%30.04 "HgN/A
1:50 PM90 °FPassing clouds.3 mph31%30.04 "HgN/A
1:20 PM88 °FSunny.3 mph35%30.04 "Hg10 mi
12:50 PM88 °FSunny.2 mph40%30.04 "Hg10 mi
12:20 PM86 °FSunny.3 mph43%30.07 "Hg10 mi
11:50 AM86 °FSunny.3 mph49%30.07 "Hg10 mi
11:20 AM84 °FSunny.3 mph48%30.07 "Hg10 mi
10:50 AM82 °FPassing clouds.5 mph51%30.07 "HgN/A
10:20 AM82 °FPassing clouds.3 mph55%30.07 "HgN/A
Weather by CustomWeather, © 2016

See weather overviewHow to use our weather pages